contact:dominique.lefevre@mio.osupytheas.fr, maurice.libes@osupytheas.fr, didier.mallarino@osupytheas.fr
Project:EMSO http://www.emso-fr.org/EMSO-France
Depth: 2436.0 m
Title:EMSO Ligure Ouest : Data MII capteur MICROCAT
DateTime_Computer,Latitude,Longitude,Temperature,Conductivity,Pressure,DateTime_Instrument
DateTime_Computer,Latitude,Longitude,degC,S m-1,dbar,DateTime_Instrument
2021-10-23T00:01:33Z,42.805,6.029,13.3006,4.60051,2470.38,2021-10-23T02:02:57Z
2021-10-23T00:04:36Z,42.805,6.029,13.3011,4.60052,2470.404,2021-10-23T02:06:00Z
2021-10-23T00:07:39Z,42.805,6.029,13.3008,4.60072,2470.366,2021-10-23T02:09:03Z
2021-10-23T00:10:42Z,42.805,6.029,13.3009,4.60072,2470.366,2021-10-23T02:12:06Z
2021-10-23T00:13:45Z,42.805,6.029,13.3004,4.60040,2470.404,2021-10-23T02:15:09Z
2021-10-23T00:16:48Z,42.805,6.029,13.3009,4.60053,2470.39,2021-10-23T02:18:12Z
2021-10-23T00:19:51Z,42.805,6.029,13.3009,4.60055,2470.38,2021-10-23T02:21:15Z
2021-10-23T00:22:54Z,42.805,6.029,13.3011,4.60050,2470.38,2021-10-23T02:24:19Z
2021-10-23T00:25:58Z,42.805,6.029,13.3010,4.60074,2470.404,2021-10-23T02:27:22Z
2021-10-23T00:29:01Z,42.805,6.029,13.2998,4.60055,2470.366,2021-10-23T02:30:25Z
2021-10-23T00:32:04Z,42.805,6.029,13.3011,4.60033,2470.343,2021-10-23T02:33:28Z
2021-10-23T00:35:07Z,42.805,6.029,13.3009,4.60046,2470.38,2021-10-23T02:36:31Z
2021-10-23T00:38:10Z,42.805,6.029,13.3021,4.60077,2470.38,2021-10-23T02:39:34Z
2021-10-23T00:41:13Z,42.805,6.029,13.3008,4.60041,2470.366,2021-10-23T02:42:37Z
2021-10-23T00:44:16Z,42.805,6.029,13.3000,4.60057,2470.38,2021-10-23T02:45:40Z
2021-10-23T00:47:19Z,42.805,6.029,13.3005,4.60046,2470.366,2021-10-23T02:48:44Z
2021-10-23T00:50:23Z,42.805,6.029,13.3006,4.60059,2470.357,2021-10-23T02:51:47Z
2021-10-23T00:53:26Z,42.805,6.029,13.3003,4.60049,2470.39,2021-10-23T02:54:50Z
2021-10-23T00:56:29Z,42.805,6.029,13.3006,4.60055,2470.39,2021-10-23T02:57:53Z
2021-10-23T00:59:32Z,42.805,6.029,13.3012,4.60084,2470.343,2021-10-23T03:00:56Z
2021-10-23T01:02:35Z,42.805,6.029,13.3007,4.60062,2470.357,2021-10-23T03:03:59Z
2021-10-23T01:05:38Z,42.805,6.029,13.3011,4.60066,2470.38,2021-10-23T03:07:02Z
2021-10-23T01:08:41Z,42.805,6.029,13.3005,4.60047,2470.357,2021-10-23T03:10:05Z
2021-10-23T01:11:44Z,42.805,6.029,13.3000,4.60038,2470.343,2021-10-23T03:13:09Z
2021-10-23T01:14:48Z,42.805,6.029,13.2999,4.60042,2470.357,2021-10-23T03:16:12Z
2021-10-23T01:17:51Z,42.805,6.029,13.3004,4.60061,2470.343,2021-10-23T03:19:15Z
2021-10-23T01:20:54Z,42.805,6.029,13.3007,4.60050,2470.357,2021-10-23T03:22:18Z
2021-10-23T01:23:57Z,42.805,6.029,13.3015,4.60049,2470.357,2021-10-23T03:25:21Z
2021-10-23T01:27:00Z,42.805,6.029,13.3012,4.60059,2470.357,2021-10-23T03:28:24Z
2021-10-23T01:30:03Z,42.805,6.029,13.2999,4.60060,2470.343,2021-10-23T03:31:27Z
2021-10-23T01:33:06Z,42.805,6.029,13.3009,4.60045,2470.366,2021-10-23T03:34:30Z
2021-10-23T01:36:09Z,42.805,6.029,13.3004,4.60045,2470.343,2021-10-23T03:37:34Z
2021-10-23T01:39:13Z,42.805,6.029,13.2996,4.60045,2470.343,2021-10-23T03:40:37Z
2021-10-23T01:42:16Z,42.805,6.029,13.3001,4.60048,2470.343,2021-10-23T03:43:40Z
2021-10-23T01:45:19Z,42.805,6.029,13.3019,4.60058,2470.357,2021-10-23T03:46:43Z
2021-10-23T01:48:22Z,42.805,6.029,13.3015,4.60050,2470.357,2021-10-23T03:49:46Z
2021-10-23T01:51:25Z,42.805,6.029,13.3006,4.60062,2470.343,2021-10-23T03:52:49Z
2021-10-23T01:54:28Z,42.805,6.029,13.2996,4.60086,2470.357,2021-10-23T03:55:52Z
2021-10-23T01:57:31Z,42.805,6.029,13.3005,4.60059,2470.32,2021-10-23T03:58:55Z
2021-10-23T02:00:34Z,42.805,6.029,13.3006,4.60072,2470.334,2021-10-23T04:01:59Z
2021-10-23T02:03:38Z,42.805,6.029,13.3006,4.60064,2470.357,2021-10-23T04:05:02Z
2021-10-23T02:06:41Z,42.805,6.029,13.3015,4.60081,2470.334,2021-10-23T04:08:05Z
2021-10-23T02:09:44Z,42.805,6.029,13.3012,4.60077,2470.343,2021-10-23T04:11:08Z
2021-10-23T02:12:47Z,42.805,6.029,13.3005,4.60072,2470.38,2021-10-23T04:14:11Z
2021-10-23T02:15:50Z,42.805,6.029,13.3008,4.60073,2470.357,2021-10-23T04:17:14Z
2021-10-23T02:18:53Z,42.805,6.029,13.3019,4.60072,2470.32,2021-10-23T04:20:17Z
2021-10-23T02:21:56Z,42.805,6.029,13.3009,4.60084,2470.343,2021-10-23T04:23:20Z
2021-10-23T02:24:59Z,42.805,6.029,13.2999,4.60093,2470.343,2021-10-23T04:26:24Z
2021-10-23T02:28:03Z,42.805,6.029,13.3004,4.60076,2470.334,2021-10-23T04:29:27Z
2021-10-23T02:31:06Z,42.805,6.029,13.3015,4.60088,2470.334,2021-10-23T04:32:30Z
2021-10-23T02:34:09Z,42.805,6.029,13.3005,4.60088,2470.297,2021-10-23T04:35:33Z
2021-10-23T02:37:12Z,42.805,6.029,13.3007,4.60072,2470.334,2021-10-23T04:38:36Z
2021-10-23T02:40:15Z,42.805,6.029,13.3013,4.60078,2470.334,2021-10-23T04:41:39Z
2021-10-23T02:43:18Z,42.805,6.029,13.3016,4.60103,2470.31,2021-10-23T04:44:42Z
2021-10-23T02:46:21Z,42.805,6.029,13.3015,4.60074,2470.366,2021-10-23T04:47:45Z
2021-10-23T02:49:24Z,42.805,6.029,13.3004,4.60089,2470.32,2021-10-23T04:50:48Z
2021-10-23T02:52:28Z,42.805,6.029,13.3020,4.60058,2470.371,2021-10-23T04:53:52Z
2021-10-23T02:55:31Z,42.805,6.029,13.3022,4.60072,2470.32,2021-10-23T04:56:55Z
2021-10-23T02:58:34Z,42.805,6.029,13.3002,4.60046,2470.343,2021-10-23T04:59:58Z
2021-10-23T03:01:37Z,42.805,6.029,13.3008,4.60053,2470.343,2021-10-23T05:03:01Z
2021-10-23T03:04:40Z,42.805,6.029,13.3018,4.60062,2470.32,2021-10-23T05:06:04Z
2021-10-23T03:07:43Z,42.805,6.029,13.3006,4.60081,2470.32,2021-10-23T05:09:07Z
2021-10-23T03:10:46Z,42.805,6.029,13.3015,4.60084,2470.357,2021-10-23T05:12:10Z
2021-10-23T03:13:49Z,42.805,6.029,13.3021,4.60088,2470.357,2021-10-23T05:15:13Z
2021-10-23T03:16:53Z,42.805,6.029,13.3005,4.60107,2470.343,2021-10-23T05:18:17Z
2021-10-23T03:19:56Z,42.805,6.029,13.3009,4.60081,2470.38,2021-10-23T05:21:20Z
2021-10-23T03:22:59Z,42.805,6.029,13.3009,4.60068,2470.357,2021-10-23T05:24:23Z
2021-10-23T03:26:02Z,42.805,6.029,13.3009,4.60082,2470.38,2021-10-23T05:27:26Z
2021-10-23T03:29:05Z,42.805,6.029,13.3000,4.60094,2470.357,2021-10-23T05:30:29Z
2021-10-23T03:32:08Z,42.805,6.029,13.3002,4.60070,2470.343,2021-10-23T05:33:32Z
2021-10-23T03:35:11Z,42.805,6.029,13.3015,4.60085,2470.357,2021-10-23T05:36:35Z
2021-10-23T03:38:14Z,42.805,6.029,13.3006,4.60067,2470.343,2021-10-23T05:39:38Z
2021-10-23T03:41:17Z,42.805,6.029,13.3006,4.60064,2470.343,2021-10-23T05:42:42Z
2021-10-23T03:44:21Z,42.805,6.029,13.3006,4.60060,2470.366,2021-10-23T05:45:45Z
2021-10-23T03:47:24Z,42.805,6.029,13.3004,4.60072,2470.33,2021-10-23T05:48:48Z
2021-10-23T03:50:27Z,42.805,6.029,13.3015,4.60056,2470.357,2021-10-23T05:51:51Z
2021-10-23T03:53:30Z,42.805,6.029,13.3000,4.60086,2470.366,2021-10-23T05:54:54Z
2021-10-23T03:56:33Z,42.805,6.029,13.3004,4.60064,2470.343,2021-10-23T05:57:57Z
2021-10-23T03:59:36Z,42.805,6.029,13.3003,4.60077,2470.366,2021-10-23T06:01:00Z
2021-10-23T04:02:39Z,42.805,6.029,13.3013,4.60092,2470.357,2021-10-23T06:04:03Z
2021-10-23T04:05:42Z,42.805,6.029,13.3019,4.60077,2470.38,2021-10-23T06:07:07Z
2021-10-23T04:08:46Z,42.805,6.029,13.3007,4.60079,2470.357,2021-10-23T06:10:10Z
2021-10-23T04:11:49Z,42.805,6.029,13.3002,4.60064,2470.357,2021-10-23T06:13:13Z
2021-10-23T04:14:52Z,42.805,6.029,13.2999,4.60057,2470.343,2021-10-23T06:16:16Z
2021-10-23T04:17:55Z,42.805,6.029,13.2999,4.60077,2470.39,2021-10-23T06:19:19Z
2021-10-23T04:20:58Z,42.805,6.029,13.3004,4.60073,2470.39,2021-10-23T06:22:22Z
2021-10-23T04:24:01Z,42.805,6.029,13.3003,4.60081,2470.413,2021-10-23T06:25:25Z
2021-10-23T04:27:04Z,42.805,6.029,13.3011,4.60072,2470.366,2021-10-23T06:28:28Z
2021-10-23T04:30:07Z,42.805,6.029,13.3006,4.60059,2470.39,2021-10-23T06:31:32Z
2021-10-23T04:33:11Z,42.805,6.029,13.3011,4.60074,2470.413,2021-10-23T06:34:35Z
2021-10-23T04:36:14Z,42.805,6.029,13.3032,4.60083,2470.404,2021-10-23T06:37:38Z
2021-10-23T04:39:17Z,42.805,6.029,13.3011,4.60089,2470.366,2021-10-23T06:40:41Z
2021-10-23T04:42:20Z,42.805,6.029,13.3017,4.60084,2470.366,2021-10-23T06:43:44Z
2021-10-23T04:45:23Z,42.805,6.029,13.3008,4.60067,2470.38,2021-10-23T06:46:47Z
2021-10-23T04:48:26Z,42.805,6.029,13.3019,4.60082,2470.417,2021-10-23T06:49:50Z
2021-10-23T04:51:29Z,42.805,6.029,13.3020,4.60081,2470.39,2021-10-23T06:52:53Z
2021-10-23T04:54:32Z,42.805,6.029,13.3006,4.60044,2470.366,2021-10-23T06:55:57Z
2021-10-23T04:57:36Z,42.805,6.029,13.3002,4.60041,2470.39,2021-10-23T06:59:00Z
2021-10-23T05:00:39Z,42.805,6.029,13.3000,4.60052,2470.413,2021-10-23T07:02:03Z
2021-10-23T05:03:42Z,42.805,6.029,13.3010,4.60062,2470.366,2021-10-23T07:05:06Z
2021-10-23T05:06:45Z,42.805,6.029,13.3010,4.60070,2470.39,2021-10-23T07:08:09Z
2021-10-23T05:09:48Z,42.805,6.029,13.3002,4.60060,2470.413,2021-10-23T07:11:12Z
2021-10-23T05:12:51Z,42.805,6.029,13.3009,4.60060,2470.404,2021-10-23T07:14:15Z
2021-10-23T05:15:54Z,42.805,6.029,13.3006,4.60052,2470.413,2021-10-23T07:17:18Z
2021-10-23T05:18:57Z,42.805,6.029,13.3002,4.60052,2470.413,2021-10-23T07:20:22Z
2021-10-23T05:22:01Z,42.805,6.029,13.3009,4.60057,2470.427,2021-10-23T07:23:25Z
2021-10-23T05:25:04Z,42.805,6.029,13.3001,4.60061,2470.437,2021-10-23T07:26:28Z
2021-10-23T05:28:07Z,42.805,6.029,13.3006,4.60066,2470.427,2021-10-23T07:29:31Z
2021-10-23T05:31:10Z,42.805,6.029,13.3010,4.60072,2470.39,2021-10-23T07:32:34Z
2021-10-23T05:34:13Z,42.805,6.029,13.3005,4.60052,2470.437,2021-10-23T07:35:37Z
2021-10-23T05:37:16Z,42.805,6.029,13.3014,4.60062,2470.437,2021-10-23T07:38:40Z
2021-10-23T05:40:19Z,42.805,6.029,13.3005,4.60063,2470.427,2021-10-23T07:41:43Z
2021-10-23T05:43:22Z,42.805,6.029,13.3005,4.60064,2470.427,2021-10-23T07:44:47Z
2021-10-23T05:46:26Z,42.805,6.029,13.3004,4.60067,2470.474,2021-10-23T07:47:50Z
2021-10-23T05:49:29Z,42.805,6.029,13.3005,4.60056,2470.437,2021-10-23T07:50:53Z
2021-10-23T05:52:32Z,42.805,6.029,13.3014,4.60070,2470.45,2021-10-23T07:53:56Z
2021-10-23T05:55:35Z,42.805,6.029,13.3000,4.60059,2470.46,2021-10-23T07:56:59Z
2021-10-23T05:58:38Z,42.805,6.029,13.3003,4.60043,2470.474,2021-10-23T08:00:02Z
2021-10-23T06:01:41Z,42.805,6.029,13.3006,4.60055,2470.474,2021-10-23T08:03:05Z
2021-10-23T06:04:44Z,42.805,6.029,13.3007,4.60049,2470.474,2021-10-23T08:06:08Z
2021-10-23T06:07:47Z,42.805,6.029,13.3000,4.60064,2470.46,2021-10-23T08:09:11Z
2021-10-23T06:10:50Z,42.805,6.029,13.3008,4.60061,2470.483,2021-10-23T08:12:15Z
2021-10-23T06:13:54Z,42.805,6.029,13.3007,4.60057,2470.46,2021-10-23T08:15:18Z
2021-10-23T06:16:57Z,42.805,6.029,13.3006,4.60051,2470.46,2021-10-23T08:18:21Z
2021-10-23T06:20:00Z,42.805,6.029,13.3005,4.60060,2470.45,2021-10-23T08:21:24Z
2021-10-23T06:23:03Z,42.805,6.029,13.3000,4.60050,2470.493,2021-10-23T08:24:27Z
2021-10-23T06:26:06Z,42.805,6.029,13.3008,4.60074,2470.483,2021-10-23T08:27:30Z
2021-10-23T06:29:09Z,42.805,6.029,13.3009,4.60064,2470.507,2021-10-23T08:30:33Z
2021-10-23T06:32:12Z,42.805,6.029,13.3012,4.60061,2470.497,2021-10-23T08:33:36Z
2021-10-23T06:35:16Z,42.805,6.029,13.3018,4.60056,2470.483,2021-10-23T08:36:40Z
2021-10-23T06:38:19Z,42.805,6.029,13.3006,4.60055,2470.52,2021-10-23T08:39:43Z
2021-10-23T06:41:22Z,42.805,6.029,13.3005,4.60039,2470.507,2021-10-23T08:42:46Z
2021-10-23T06:44:25Z,42.805,6.029,13.3011,4.60060,2470.497,2021-10-23T08:45:49Z
2021-10-23T06:47:28Z,42.805,6.029,13.3009,4.60069,2470.507,2021-10-23T08:48:52Z
2021-10-23T06:50:31Z,42.805,6.029,13.3008,4.60066,2470.497,2021-10-23T08:51:55Z
2021-10-23T06:53:34Z,42.805,6.029,13.3008,4.60064,2470.52,2021-10-23T08:54:58Z
2021-10-23T06:56:37Z,42.805,6.029,13.3006,4.60061,2470.544,2021-10-23T08:58:01Z
2021-10-23T06:59:40Z,42.805,6.029,13.3006,4.60059,2470.53,2021-10-23T09:01:05Z
2021-10-23T07:02:44Z,42.805,6.029,13.3022,4.60064,2470.507,2021-10-23T09:04:08Z
2021-10-23T07:05:47Z,42.805,6.029,13.3012,4.60057,2470.507,2021-10-23T09:07:11Z
2021-10-23T07:08:50Z,42.805,6.029,13.3009,4.60059,2470.483,2021-10-23T09:10:14Z
2021-10-23T07:11:53Z,42.805,6.029,13.3001,4.60038,2470.52,2021-10-23T09:13:17Z
2021-10-23T07:14:56Z,42.805,6.029,13.3004,4.60050,2470.52,2021-10-23T09:16:20Z
2021-10-23T07:17:59Z,42.805,6.029,13.3001,4.60053,2470.53,2021-10-23T09:19:23Z
2021-10-23T07:21:02Z,42.805,6.029,13.3025,4.60058,2470.507,2021-10-23T09:22:26Z
2021-10-23T07:24:05Z,42.805,6.029,13.3002,4.60057,2470.567,2021-10-23T09:25:30Z
2021-10-23T07:27:09Z,42.805,6.029,13.3004,4.60076,2470.53,2021-10-23T09:28:33Z
2021-10-23T07:30:12Z,42.805,6.029,13.3009,4.60070,2470.52,2021-10-23T09:31:36Z
2021-10-23T07:33:15Z,42.805,6.029,13.3009,4.60079,2470.544,2021-10-23T09:34:39Z
2021-10-23T07:36:18Z,42.805,6.029,13.3007,4.60052,2470.544,2021-10-23T09:37:42Z
2021-10-23T07:39:21Z,42.805,6.029,13.3004,4.60052,2470.53,2021-10-23T09:40:45Z
2021-10-23T07:42:24Z,42.805,6.029,13.3017,4.60057,2470.567,2021-10-23T09:43:48Z
2021-10-23T07:45:27Z,42.805,6.029,13.3011,4.60061,2470.553,2021-10-23T09:46:51Z
2021-10-23T07:48:30Z,42.805,6.029,13.3016,4.60049,2470.53,2021-10-23T09:49:55Z
2021-10-23T07:51:34Z,42.805,6.029,13.2998,4.60038,2470.553,2021-10-23T09:52:58Z
2021-10-23T07:54:37Z,42.805,6.029,13.3006,4.60049,2470.516,2021-10-23T09:56:01Z
2021-10-23T07:57:40Z,42.805,6.029,13.3000,4.60056,2470.567,2021-10-23T09:59:04Z
2021-10-23T08:00:43Z,42.805,6.029,13.3008,4.60058,2470.567,2021-10-23T10:02:07Z
2021-10-23T08:03:46Z,42.805,6.029,13.3007,4.60059,2470.553,2021-10-23T10:05:10Z
2021-10-23T08:06:49Z,42.805,6.029,13.3004,4.60073,2470.591,2021-10-23T10:08:13Z
2021-10-23T08:09:52Z,42.805,6.029,13.3005,4.60039,2470.567,2021-10-23T10:11:16Z
2021-10-23T08:12:55Z,42.805,6.029,13.3007,4.60050,2470.563,2021-10-23T10:14:20Z
2021-10-23T08:15:59Z,42.805,6.029,13.2999,4.60044,2470.567,2021-10-23T10:17:23Z
2021-10-23T08:19:02Z,42.805,6.029,13.3000,4.60054,2470.567,2021-10-23T10:20:26Z
2021-10-23T08:22:05Z,42.805,6.029,13.3004,4.60050,2470.53,2021-10-23T10:23:29Z
2021-10-23T08:25:08Z,42.805,6.029,13.3004,4.60049,2470.53,2021-10-23T10:26:32Z
2021-10-23T08:28:11Z,42.805,6.029,13.2999,4.60057,2470.567,2021-10-23T10:29:35Z
2021-10-23T08:31:14Z,42.805,6.029,13.3007,4.60069,2470.53,2021-10-23T10:32:38Z
2021-10-23T08:34:17Z,42.805,6.029,13.3008,4.60061,2470.553,2021-10-23T10:35:41Z
2021-10-23T08:37:21Z,42.805,6.029,13.3004,4.60049,2470.567,2021-10-23T10:38:45Z
2021-10-23T08:40:24Z,42.805,6.029,13.3003,4.60050,2470.591,2021-10-23T10:41:48Z
2021-10-23T08:43:27Z,42.805,6.029,13.3001,4.60047,2470.567,2021-10-23T10:44:51Z
2021-10-23T08:46:30Z,42.805,6.029,13.3000,4.60054,2470.544,2021-10-23T10:47:54Z
2021-10-23T08:49:33Z,42.805,6.029,13.3011,4.60047,2470.567,2021-10-23T10:50:57Z
2021-10-23T08:52:36Z,42.805,6.029,13.3012,4.60036,2470.544,2021-10-23T10:54:00Z
2021-10-23T08:55:39Z,42.805,6.029,13.3008,4.60052,2470.53,2021-10-23T10:57:03Z
2021-10-23T08:58:42Z,42.805,6.029,13.3002,4.60047,2470.553,2021-10-23T11:00:06Z
2021-10-23T09:01:46Z,42.805,6.029,13.3006,4.60057,2470.553,2021-10-23T11:03:10Z
2021-10-23T09:04:49Z,42.805,6.029,13.3010,4.60045,2470.567,2021-10-23T11:06:13Z
2021-10-23T09:07:52Z,42.805,6.029,13.3007,4.60042,2470.567,2021-10-23T11:09:16Z
2021-10-23T09:10:55Z,42.805,6.029,13.3006,4.60062,2470.567,2021-10-23T11:12:19Z
2021-10-23T09:13:58Z,42.805,6.029,13.3009,4.60062,2470.591,2021-10-23T11:15:22Z
2021-10-23T09:17:01Z,42.805,6.029,13.3009,4.60067,2470.53,2021-10-23T11:18:25Z
2021-10-23T09:20:04Z,42.805,6.029,13.3007,4.60058,2470.567,2021-10-23T11:21:28Z
2021-10-23T09:23:07Z,42.805,6.029,13.3012,4.60064,2470.52,2021-10-23T11:24:32Z
2021-10-23T09:26:11Z,42.805,6.029,13.3006,4.60054,2470.553,2021-10-23T11:27:35Z
2021-10-23T09:29:14Z,42.805,6.029,13.3001,4.60036,2470.577,2021-10-23T11:30:38Z
2021-10-23T09:32:17Z,42.805,6.029,13.3005,4.60042,2470.567,2021-10-23T11:33:41Z
2021-10-23T09:35:20Z,42.805,6.029,13.3005,4.60047,2470.544,2021-10-23T11:36:44Z
2021-10-23T09:38:23Z,42.805,6.029,13.3000,4.60052,2470.553,2021-10-23T11:39:47Z
2021-10-23T09:41:26Z,42.805,6.029,13.3008,4.60052,2470.544,2021-10-23T11:42:50Z
2021-10-23T09:44:29Z,42.805,6.029,13.3004,4.60042,2470.553,2021-10-23T11:45:53Z
2021-10-23T09:47:32Z,42.805,6.029,13.3004,4.60034,2470.553,2021-10-23T11:48:57Z
2021-10-23T09:50:36Z,42.805,6.029,13.2998,4.60040,2470.544,2021-10-23T11:52:00Z
2021-10-23T09:53:39Z,42.805,6.029,13.3003,4.60043,2470.567,2021-10-23T11:55:03Z
2021-10-23T09:56:42Z,42.805,6.029,13.2999,4.60031,2470.591,2021-10-23T11:58:06Z
2021-10-23T09:59:45Z,42.805,6.029,13.3000,4.60042,2470.567,2021-10-23T12:01:09Z
2021-10-23T10:02:48Z,42.805,6.029,13.3006,4.60041,2470.53,2021-10-23T12:04:12Z
2021-10-23T10:05:51Z,42.805,6.029,13.3004,4.60061,2470.544,2021-10-23T12:07:15Z
2021-10-23T10:08:54Z,42.805,6.029,13.3008,4.60057,2470.53,2021-10-23T12:10:18Z
2021-10-23T10:11:57Z,42.805,6.029,13.2997,4.60057,2470.52,2021-10-23T12:13:22Z
2021-10-23T10:15:01Z,42.805,6.029,13.3008,4.60070,2470.507,2021-10-23T12:16:25Z
2021-10-23T10:18:04Z,42.805,6.029,13.2998,4.60058,2470.507,2021-10-23T12:19:28Z
2021-10-23T10:21:07Z,42.805,6.029,13.2999,4.60043,2470.507,2021-10-23T12:22:31Z
2021-10-23T10:24:10Z,42.805,6.029,13.2998,4.60033,2470.507,2021-10-23T12:25:34Z
2021-10-23T10:27:13Z,42.805,6.029,13.2998,4.60036,2470.507,2021-10-23T12:28:37Z
2021-10-23T10:30:16Z,42.805,6.029,13.3002,4.60045,2470.507,2021-10-23T12:31:40Z
2021-10-23T10:33:19Z,42.805,6.029,13.3001,4.60037,2470.52,2021-10-23T12:34:44Z
2021-10-23T10:36:22Z,42.805,6.029,13.3008,4.60046,2470.507,2021-10-23T12:37:47Z
2021-10-23T10:39:26Z,42.805,6.029,13.3001,4.60052,2470.52,2021-10-23T12:40:50Z
2021-10-23T10:42:29Z,42.805,6.029,13.3011,4.60042,2470.497,2021-10-23T12:43:53Z
2021-10-23T10:45:32Z,42.805,6.029,13.3011,4.60046,2470.52,2021-10-23T12:46:56Z
2021-10-23T10:48:35Z,42.805,6.029,13.3004,4.60045,2470.507,2021-10-23T12:49:59Z
2021-10-23T10:51:38Z,42.805,6.029,13.3009,4.60055,2470.497,2021-10-23T12:53:02Z
2021-10-23T10:54:41Z,42.805,6.029,13.3004,4.60032,2470.497,2021-10-23T12:56:05Z
2021-10-23T10:57:44Z,42.805,6.029,13.3004,4.60035,2470.497,2021-10-23T12:59:09Z
2021-10-23T11:00:48Z,42.805,6.029,13.3000,4.60033,2470.52,2021-10-23T13:02:12Z
2021-10-23T11:03:51Z,42.805,6.029,13.3002,4.60047,2470.483,2021-10-23T13:05:15Z
2021-10-23T11:06:54Z,42.805,6.029,13.3004,4.60044,2470.483,2021-10-23T13:08:18Z
2021-10-23T11:09:57Z,42.805,6.029,13.3008,4.60047,2470.52,2021-10-23T13:11:21Z
2021-10-23T11:13:00Z,42.805,6.029,13.3009,4.60050,2470.437,2021-10-23T13:14:24Z
2021-10-23T11:16:03Z,42.805,6.029,13.3004,4.60045,2470.46,2021-10-23T13:17:27Z
2021-10-23T11:19:06Z,42.805,6.029,13.3000,4.60039,2470.474,2021-10-23T13:20:30Z
2021-10-23T11:22:09Z,42.805,6.029,13.2996,4.60049,2470.46,2021-10-23T13:23:34Z
2021-10-23T11:25:13Z,42.805,6.029,13.3004,4.60031,2470.483,2021-10-23T13:26:37Z
2021-10-23T11:28:16Z,42.805,6.029,13.2998,4.60052,2470.53,2021-10-23T13:29:40Z
2021-10-23T11:31:19Z,42.805,6.029,13.2998,4.60045,2470.53,2021-10-23T13:32:43Z
2021-10-23T11:34:22Z,42.805,6.029,13.3005,4.60046,2470.483,2021-10-23T13:35:46Z
2021-10-23T11:37:25Z,42.805,6.029,13.3001,4.60046,2470.46,2021-10-23T13:38:49Z
2021-10-23T11:40:28Z,42.805,6.029,13.3000,4.60036,2470.45,2021-10-23T13:41:52Z
2021-10-23T11:43:31Z,42.805,6.029,13.2996,4.60021,2470.413,2021-10-23T13:44:55Z
2021-10-23T11:46:35Z,42.805,6.029,13.3002,4.60034,2470.437,2021-10-23T13:47:59Z
2021-10-23T11:49:38Z,42.805,6.029,13.3004,4.60046,2470.413,2021-10-23T13:51:02Z
2021-10-23T11:52:41Z,42.805,6.029,13.3001,4.60044,2470.46,2021-10-23T13:54:05Z
2021-10-23T11:55:44Z,42.805,6.029,13.3006,4.60036,2470.437,2021-10-23T13:57:08Z
2021-10-23T11:58:47Z,42.805,6.029,13.3001,4.60039,2470.437,2021-10-23T14:00:11Z
2021-10-23T12:01:50Z,42.805,6.029,13.3008,4.60030,2470.437,2021-10-23T14:03:14Z
2021-10-23T12:04:53Z,42.805,6.029,13.3006,4.60046,2470.413,2021-10-23T14:06:17Z
2021-10-23T12:07:56Z,42.805,6.029,13.2997,4.60035,2470.437,2021-10-23T14:09:20Z
2021-10-23T12:10:59Z,42.805,6.029,13.3005,4.60035,2470.413,2021-10-23T14:12:24Z
2021-10-23T12:14:03Z,42.805,6.029,13.3005,4.60051,2470.437,2021-10-23T14:15:27Z
2021-10-23T12:17:06Z,42.805,6.029,13.3000,4.60054,2470.427,2021-10-23T14:18:30Z
2021-10-23T12:20:09Z,42.805,6.029,13.3009,4.60042,2470.437,2021-10-23T14:21:33Z
2021-10-23T12:23:12Z,42.805,6.029,13.3002,4.60045,2470.404,2021-10-23T14:24:36Z
2021-10-23T12:26:15Z,42.805,6.029,13.3005,4.60034,2470.427,2021-10-23T14:27:39Z
2021-10-23T12:29:18Z,42.805,6.029,13.3004,4.60048,2470.413,2021-10-23T14:30:42Z
2021-10-23T12:32:21Z,42.805,6.029,13.3004,4.60045,2470.427,2021-10-23T14:33:45Z
2021-10-23T12:35:24Z,42.805,6.029,13.3004,4.60044,2470.39,2021-10-23T14:36:49Z
2021-10-23T12:38:28Z,42.805,6.029,13.3007,4.60045,2470.404,2021-10-23T14:39:52Z
2021-10-23T12:41:31Z,42.805,6.029,13.3004,4.60036,2470.413,2021-10-23T14:42:55Z
2021-10-23T12:44:34Z,42.805,6.029,13.3000,4.60045,2470.366,2021-10-23T14:45:58Z
2021-10-23T12:47:37Z,42.805,6.029,13.3005,4.60046,2470.366,2021-10-23T14:49:01Z
2021-10-23T12:50:40Z,42.805,6.029,13.3003,4.60040,2470.404,2021-10-23T14:52:04Z
2021-10-23T12:53:43Z,42.805,6.029,13.3002,4.60044,2470.39,2021-10-23T14:55:07Z
2021-10-23T12:56:46Z,42.805,6.029,13.2998,4.60031,2470.413,2021-10-23T14:58:10Z
2021-10-23T12:59:50Z,42.805,6.029,13.3009,4.60041,2470.427,2021-10-23T15:01:14Z
2021-10-23T13:02:53Z,42.805,6.029,13.3005,4.60051,2470.404,2021-10-23T15:04:17Z
2021-10-23T13:05:56Z,42.805,6.029,13.3000,4.60046,2470.39,2021-10-23T15:07:20Z
2021-10-23T13:08:59Z,42.805,6.029,13.3010,4.60052,2470.366,2021-10-23T15:10:23Z
2021-10-23T13:12:02Z,42.805,6.029,13.3002,4.60039,2470.366,2021-10-23T15:13:26Z
2021-10-23T13:15:05Z,42.805,6.029,13.3008,4.60045,2470.366,2021-10-23T15:16:29Z
2021-10-23T13:18:08Z,42.805,6.029,13.3006,4.60039,2470.343,2021-10-23T15:19:32Z
2021-10-23T13:21:11Z,42.805,6.029,13.3004,4.60041,2470.343,2021-10-23T15:22:36Z
2021-10-23T13:24:15Z,42.805,6.029,13.2996,4.60032,2470.343,2021-10-23T15:25:39Z
2021-10-23T13:27:18Z,42.805,6.029,13.2998,4.60031,2470.38,2021-10-23T15:28:42Z
2021-10-23T13:30:21Z,42.805,6.029,13.2996,4.60048,2470.32,2021-10-23T15:31:45Z
2021-10-23T13:33:24Z,42.805,6.029,13.3016,4.60042,2470.366,2021-10-23T15:34:48Z
2021-10-23T13:36:27Z,42.805,6.029,13.3001,4.60038,2470.38,2021-10-23T15:37:51Z
2021-10-23T13:39:30Z,42.805,6.029,13.2998,4.60043,2470.366,2021-10-23T15:40:54Z
2021-10-23T13:42:33Z,42.805,6.029,13.3003,4.60034,2470.357,2021-10-23T15:43:57Z
2021-10-23T13:45:36Z,42.805,6.029,13.3006,4.60046,2470.343,2021-10-23T15:47:01Z
2021-10-23T13:48:40Z,42.805,6.029,13.3007,4.60049,2470.38,2021-10-23T15:50:04Z
2021-10-23T13:51:43Z,42.805,6.029,13.3003,4.60036,2470.32,2021-10-23T15:53:07Z
2021-10-23T13:54:46Z,42.805,6.029,13.3000,4.60049,2470.357,2021-10-23T15:56:10Z
2021-10-23T13:57:49Z,42.805,6.029,13.3009,4.60039,2470.343,2021-10-23T15:59:13Z
2021-10-23T14:00:52Z,42.805,6.029,13.3008,4.60044,2470.38,2021-10-23T16:02:16Z
2021-10-23T14:03:55Z,42.805,6.029,13.3000,4.60041,2470.32,2021-10-23T16:05:19Z
2021-10-23T14:06:58Z,42.805,6.029,13.3006,4.60049,2470.366,2021-10-23T16:08:22Z
2021-10-23T14:10:01Z,42.805,6.029,13.3005,4.60045,2470.343,2021-10-23T16:11:26Z
2021-10-23T14:13:05Z,42.805,6.029,13.3007,4.60030,2470.343,2021-10-23T16:14:29Z
2021-10-23T14:16:08Z,42.805,6.029,13.3007,4.60050,2470.357,2021-10-23T16:17:32Z
2021-10-23T14:19:11Z,42.805,6.029,13.3006,4.60050,2470.32,2021-10-23T16:20:35Z
2021-10-23T14:22:14Z,42.805,6.029,13.3004,4.60049,2470.32,2021-10-23T16:23:38Z
2021-10-23T14:25:17Z,42.805,6.029,13.3005,4.60039,2470.343,2021-10-23T16:26:41Z
2021-10-23T14:28:20Z,42.805,6.029,13.2998,4.60036,2470.357,2021-10-23T16:29:44Z
2021-10-23T14:31:23Z,42.805,6.029,13.3006,4.60041,2470.343,2021-10-23T16:32:47Z
2021-10-23T14:34:26Z,42.805,6.029,13.2998,4.60039,2470.343,2021-10-23T16:35:51Z
2021-10-23T14:37:30Z,42.805,6.029,13.3006,4.60044,2470.32,2021-10-23T16:38:54Z
2021-10-23T14:40:33Z,42.805,6.029,13.3006,4.60044,2470.357,2021-10-23T16:41:57Z
2021-10-23T14:43:36Z,42.805,6.029,13.3004,4.60049,2470.32,2021-10-23T16:45:00Z
2021-10-23T14:46:39Z,42.805,6.029,13.3004,4.60044,2470.343,2021-10-23T16:48:03Z
2021-10-23T14:49:42Z,42.805,6.029,13.3010,4.60056,2470.32,2021-10-23T16:51:06Z
2021-10-23T14:52:45Z,42.805,6.029,13.3007,4.60041,2470.32,2021-10-23T16:54:09Z
2021-10-23T14:55:48Z,42.805,6.029,13.3010,4.60038,2470.343,2021-10-23T16:57:12Z
2021-10-23T14:58:51Z,42.805,6.029,13.3002,4.60046,2470.297,2021-10-23T17:00:16Z
2021-10-23T15:01:55Z,42.805,6.029,13.3004,4.60051,2470.343,2021-10-23T17:03:19Z